Location: Bratsk-Energetik
(56.3300°N, 101.7600°E)
Time: 04:40:21
(UTC+08:00)

ISS - Pass Details

Date: 19 July 2018
Orbit: 402 x 408 km, 51.6° (Epoch: 22 July)

Event Time Altitude Azimuth Distance (km) Brightness Sun altitude
Rises 22:51:43 0° 200° (SSW) 2,314 -0.3 -6.9°
Reaches altitude 10° 22:55:00 10° 164° (SSE) 1,461 -1.6 -7.1°
Maximum altitude 22:56:04 11° 145° (SE) 1,391 -1.8 -7.2°
Drops below altitude 10° 22:57:07 10° 126° (SE) 1,465 -1.6 -7.3°
Sets 23:00:26 0° 90° (E) 2,331 -0.3 -7.5°
